Location: Alafon
(8.4500°N, 4.2333°E)
Time: 01:01:40
(UTC+00:00)

H-2A R/B - Pass Details

Date: 05 July 2020
Orbit: 733 x 837 km, 98.2° (Epoch: 06 August)

Event Time Altitude Azimuth Distance (km) Brightness Sun altitude
Exits shadow 19:41:25 20° 182° (S) 1,789 3.6 -22.2°
Maximum altitude 19:45:04 63° 258° (WSW) 916 2.5 -23.0°
Drops below altitude 10° 19:50:26 10° 339° (NNW) 2,439 5.2 -24.1°
Sets 19:52:50 0° 343° (NNW) 3,375 6.0 -24.6°
